,

(GMT )
Grand Etang

Weather History for CWZQ - December, 2012

Change the Weather History Date:

Thursday, December 27, 2012

  Actual Average Record
Temperature  
Mean Temperature 32 °F -  
Max Temperature 36 °F - - ()
Min Temperature 27 °F - - ()
Degree Days  
Heating Degree Days 34    
Moisture  
Dew Point 24 °F    
Average Humidity 76    
Maximum Humidity 82    
Minimum Humidity 70    
Precipitation  
Precipitation 0.00 in - - ()
Sea Level Pressure  
Sea Level Pressure 30.09 in    
Wind  
Wind Speed 12 mph ()    
Max Wind Speed 44 mph    
Max Gust Speed 70 mph    
T = Trace of Precipitation, MM = Missing Value Source: Averaged Metar Reports

Daily Weather History Graph

Daily Weather History Graph

Search for Another Location

Airport or City:

Trip Planner

Search our weather history database for the weather conditions in past years. The results will help you decide how hot, cold, wet, or windy it might be!

Date:

Astronomy

Dec. 27, 2012 Rise Set
Actual Time 7:47 AM AST 4:23 PM AST
Civil Twilight 7:12 AM AST 4:58 PM AST
Nautical Twilight 6:34 AM AST 5:36 PM AST
Astronomical Twilight 5:57 AM AST 6:13 PM AST
Moon 4:04 PM AST (12/27) 6:53 AM AST (12/27)
Length of Visible Light 9h 45m
Length of Day
8h 35m
Waxing Gibbous, 99% of the Moon is Illuminated
Dec 27
Waxing Gibbous
Dec 28
Full
Jan 4
Last Quarter
Jan 11
New
Jan 18
First Quarter

Hourly Weather History & Observations

Time (AST) Temp. Windchill Dew Point Humidity Pressure Visibility Wind Dir Wind Speed Gust Speed Precip Events Conditions
12:00 AM 30.9 °F 19.8 °F 25.2 °F 79% 30.24 in - NW 16.1 mph - N/A   Unknown
12:20 AM 30.9 °F 20.7 °F 25.3 °F 80% - - NW 13.8 mph - N/A   Unknown
12:40 AM 30.9 °F 21.7 °F 25.2 °F 79% - - North 11.5 mph - N/A   Unknown
1:00 AM 31.1 °F 20.5 °F 25.7 °F 80% 30.25 in - NNW 15.0 mph - N/A   Unknown
1:20 AM 30.9 °F 22.2 °F 25.2 °F 79% - - NW 10.4 mph 17.3 mph N/A   Unknown
1:40 AM 30.7 °F 20.4 °F 25.0 °F 79% - - NNW 13.8 mph - N/A   Unknown
2:00 AM 30.4 °F 20.0 °F 24.3 °F 78% 30.25 in - NW 13.8 mph - N/A   Unknown
2:20 AM 30.2 °F 22.6 °F 24.1 °F 78% - - NW 8.1 mph - N/A   Unknown
2:40 AM 30.9 °F 22.8 °F 25.2 °F 79% - - NNW 9.2 mph - N/A   Unknown
3:00 AM 30.9 °F 20.7 °F 25.2 °F 79% 30.25 in - NNW 13.8 mph - N/A   Unknown
3:20 AM 30.6 °F 22.4 °F 24.3 °F 77% - - NNW 9.2 mph 18.4 mph N/A   Unknown
3:40 AM 30.2 °F 21.9 °F 23.7 °F 77% - - NNW 9.2 mph - N/A   Unknown
4:00 AM 30.4 °F 21.0 °F 24.1 °F 77% 30.25 in - North 11.5 mph - N/A   Unknown
4:20 AM 30.6 °F 21.2 °F 24.4 °F 78% - - NW 11.5 mph - N/A   Unknown
4:40 AM 30.6 °F 22.4 °F 24.3 °F 77% - - WNW 9.2 mph - N/A   Unknown
5:00 AM 30.0 °F 20.5 °F 23.5 °F 77% 30.24 in - North 11.5 mph - N/A   Unknown
5:20 AM 30.6 °F 23.1 °F 24.6 °F 79% - - North 8.1 mph - N/A   Unknown
6:00 AM 30.4 °F 22.2 °F 24.3 °F 78% 30.23 in - NNW 9.2 mph - N/A   Unknown
6:20 AM 30.0 °F 23.2 °F 23.7 °F 77% - - North 6.9 mph - N/A   Unknown
6:40 AM 29.8 °F 22.2 °F 23.7 °F 78% - - NNW 8.1 mph - N/A   Unknown
7:00 AM 29.1 °F 20.6 °F 22.3 °F 76% 30.25 in - NNE 9.2 mph - N/A   Unknown
7:20 AM 28.9 °F 22.8 °F 22.5 °F 77% - - East 5.8 mph - N/A   Unknown
7:40 AM 28.8 °F 19.5 °F 22.8 °F 78% - - ENE 10.4 mph - N/A   Unknown
8:20 AM 28.4 °F 21.2 °F 22.5 °F 78% - - ENE 6.9 mph - N/A   Unknown
8:40 AM 28.0 °F 18.6 °F 21.9 °F 78% - - ENE 10.4 mph - N/A   Unknown
9:00 AM 27.9 °F 18.4 °F 21.2 °F 76% 30.26 in - East 10.4 mph - N/A   Unknown
9:20 AM 27.9 °F 21.5 °F 21.0 °F 75% - - SE 5.8 mph - N/A   Unknown
9:40 AM 28.2 °F 22.0 °F 21.6 °F 76% - - SSE 5.8 mph - N/A   Unknown
10:00 AM 28.2 °F 20.2 °F 21.2 °F 75% 30.26 in - SSE 8.1 mph - N/A   Unknown
10:20 AM 28.2 °F 22.0 °F 21.0 °F 74% - - SSE 5.8 mph - N/A   Unknown
10:40 AM 29.1 °F 20.6 °F 21.6 °F 73% - - ENE 9.2 mph - N/A   Unknown
11:00 AM 29.7 °F 20.1 °F 22.1 °F 73% 30.22 in - NNE 11.5 mph - N/A   Unknown
11:20 AM 30.0 °F 21.7 °F 22.5 °F 73% - - NNW 9.2 mph - N/A   Unknown
11:40 AM 30.2 °F 21.9 °F 22.6 °F 73% - - ESE 9.2 mph - N/A   Unknown
12:00 PM 30.2 °F 20.8 °F 22.5 °F 73% 30.18 in - East 11.5 mph - N/A   Unknown
12:20 PM 30.7 °F 23.3 °F 22.8 °F 72% - - SE 8.1 mph - N/A   Unknown
12:40 PM 30.9 °F 22.2 °F 22.6 °F 71% - - East 10.4 mph 18.4 mph N/A   Unknown
1:00 PM 31.1 °F 22.4 °F 22.8 °F 71% 30.12 in - ESE 10.4 mph - N/A   Unknown
1:20 PM 30.7 °F 23.3 °F 22.3 °F 71% - - ENE 8.1 mph - N/A   Unknown
1:40 PM 31.1 °F 23.7 °F 22.5 °F 70% - - SE 8.1 mph - N/A   Unknown
2:00 PM 30.9 °F 21.7 °F 22.3 °F 70% 30.10 in - ESE 11.5 mph - N/A   Unknown
2:20 PM 31.3 °F 23.9 °F 22.5 °F 70% - - East 8.1 mph - N/A   Unknown
2:40 PM 31.1 °F 23.1 °F 22.8 °F 71% - - SE 9.2 mph - N/A   Unknown
3:00 PM 31.3 °F 23.3 °F 23.2 °F 72% 30.07 in - SE 9.2 mph - N/A   Unknown
3:20 PM 31.5 °F 24.9 °F 23.4 °F 72% - - NNE 6.9 mph - N/A   Unknown
3:40 PM 31.5 °F 24.2 °F 23.4 °F 72% - - ENE 8.1 mph - N/A   Unknown
4:00 PM 31.3 °F 23.3 °F 23.0 °F 71% 30.06 in - South 9.2 mph - N/A   Unknown
4:20 PM 31.3 °F 22.7 °F 23.0 °F 71% - - ENE 10.4 mph - N/A   Unknown
4:40 PM 31.5 °F 24.2 °F 23.5 °F 73% - - SSE 8.1 mph - N/A   Unknown
5:00 PM 31.6 °F 23.1 °F 24.6 °F 75% 30.01 in - West 10.4 mph - N/A   Unknown
5:20 PM 31.6 °F 24.4 °F 24.3 °F 74% - - West 8.1 mph - N/A   Unknown
5:40 PM 31.6 °F 22.6 °F 24.3 °F 74% - - ESE 11.5 mph 21.9 mph N/A   Unknown
6:00 PM 32.0 °F 22.1 °F 24.6 °F 74% 29.95 in - ESE 13.8 mph 32.2 mph N/A   Unknown
6:20 PM 32.0 °F 20.8 °F 25.0 °F 75% - - East 17.3 mph 28.8 mph N/A   Unknown
6:40 PM 31.5 °F 19.4 °F 25.3 °F 78% - - East 19.6 mph 40.3 mph N/A   Unknown
7:00 PM 31.3 °F 18.5 °F 25.7 °F 80% 29.91 in - East 21.9 mph 39.1 mph N/A   Unknown
7:20 PM 32.9 °F 24.7 °F 26.8 °F 78% - - NNW 10.4 mph 18.4 mph N/A   Unknown
7:40 PM 32.9 °F 22.8 °F 27.1 °F 79% - - North 15.0 mph 24.2 mph N/A   Unknown
8:00 PM 33.3 °F 21.2 °F 27.3 °F 79% 29.84 in - North 21.9 mph - N/A   Unknown
8:20 PM 33.3 °F 25.7 °F 28.0 °F 81% - - NW 9.2 mph 18.4 mph N/A   Unknown
9:00 PM 33.6 °F 21.9 °F 28.6 °F 82% 29.79 in - ESE 20.7 mph 36.8 mph N/A   Unknown
9:20 PM 34.0 °F 22.7 °F 28.8 °F 81% - - ESE 19.6 mph 47.2 mph N/A   Unknown
9:40 PM 34.2 °F 24.4 °F 28.9 °F 81% - - East 15.0 mph 41.4 mph N/A   Unknown
10:00 PM 34.7 °F 21.8 °F 28.8 °F 79% 29.76 in - East 27.6 mph 50.6 mph N/A   Unknown
10:20 PM 35.6 °F 23.4 °F 28.6 °F 76% - - East 25.3 mph 54.1 mph N/A   Unknown
10:40 PM 35.6 °F 21.7 °F 29.1 °F 77% - - East 34.5 mph 64.4 mph N/A   Unknown
11:00 PM 36.0 °F 21.0 °F 28.8 °F 75% 29.59 in - East 42.6 mph 67.9 mph N/A   Unknown
11:20 PM 35.6 °F 20.3 °F 28.9 °F 77% - - East 43.7 mph 70.2 mph N/A   Unknown
11:40 PM 36.1 °F 21.2 °F 29.3 °F 76% - - East 42.6 mph 70.2 mph N/A   Unknown